| time (UTC) | temp C | wind direction | speed KPH | gust KPH | rain 1hr cm | rain 24hr cm | rain mn cm | humidity % | barometer mb |
| 20260507170016 | 15 | 53 | 11.3 | 29.0 | 0.00 | 1.42 | 0.00 | 49 | 1008.3 |
| 20260507165507 | 14 | 338 | 9.7 | 29.0 | 0.00 | 1.42 | 0.00 | 44 | 1008.6 |
| 20260507165007 | 14 | 38 | 17.7 | 29.0 | 0.00 | 1.45 | 0.00 | 43 | 1008.7 |
| 20260507164520 | 15 | 325 | 12.9 | 27.4 | 0.00 | 1.47 | 0.00 | 51 | 1008.7 |
| 20260507164009 | 14 | 309 | 4.8 | 27.4 | 0.00 | 1.47 | 0.00 | 53 | 1008.8 |
| 20260507163512 | 13 | 34 | 14.5 | 27.4 | 0.00 | 1.47 | 0.00 | 54 | 1009.0 |
| 20260507163026 | 13 | 55 | 11.3 | 20.9 | 0.00 | 1.47 | 0.00 | 47 | 1009.1 |
| 20260507162514 | 13 | 15 | 4.8 | 20.9 | 0.00 | 1.47 | 0.00 | 52 | 1009.2 |
| 20260507162009 | 13 | 23 | 8.0 | 20.9 | 0.00 | 1.52 | 0.00 | 55 | 1009.1 |
| 20260507161525 | 12 | 259 | 3.2 | 25.7 | 0.00 | 1.52 | 0.00 | 49 | 1009.2 |
| 20260507161008 | 13 | 309 | 3.2 | 30.6 | 0.00 | 1.52 | 0.00 | 43 | 1009.1 |
| 20260507160509 | 13 | 347 | 17.7 | 30.6 | 0.00 | 1.52 | 0.00 | 45 | 1009.1 |
| 20260507160021 | 14 | 20 | 11.3 | 29.0 | 0.00 | 1.52 | 0.00 | 50 | 1009.1 |
| 20260507155504 | 13 | 44 | 11.3 | 45.1 | 0.00 | 1.52 | 0.00 | 47 | 1009.1 |
| 20260507155006 | 13 | 347 | 20.9 | 45.1 | 0.00 | 1.52 | 0.00 | 43 | 1009.3 |
| 20260507154522 | 13 | 31 | 17.7 | 37.0 | 0.00 | 1.52 | 0.00 | 47 | 1009.3 |
| 20260507154011 | 13 | 69 | 17.7 | 37.0 | 0.00 | 1.52 | 0.00 | 48 | 1009.5 |
| 20260507153508 | 13 | 33 | 16.1 | 32.2 | 0.00 | 1.52 | 0.00 | 48 | 1009.7 |
| 20260507153022 | 13 | 146 | 12.9 | 32.2 | 0.00 | 1.52 | 0.00 | 46 | 1009.6 |
| 20260507152508 | 13 | 34 | 8.0 | 33.8 | 0.00 | 1.52 | 0.00 | 44 | 1009.6 |
| 20260507152013 | 12 | 24 | 20.9 | 32.2 | 0.00 | 1.52 | 0.00 | 43 | 1009.6 |
| 20260507151527 | 13 | 323 | 9.7 | 29.0 | 0.00 | 1.52 | 0.00 | 53 | 1009.7 |
| 20260507151008 | 12 | 338 | 16.1 | 33.8 | 0.00 | 1.52 | 0.00 | 48 | 1009.5 |
| 20260507150508 | 12 | 47 | 16.1 | 33.8 | 0.00 | 1.52 | 0.00 | 48 | 1009.7 |
| 20260507150027 | 12 | 61 | 17.7 | 54.7 | 0.00 | 1.52 | 0.00 | 47 | 1009.6 |
| 20260507145511 | 12 | 115 | 12.9 | 54.7 | 0.00 | 1.52 | 0.00 | 50 | 1009.7 |
| 20260507145010 | 12 | 338 | 16.1 | 37.0 | 0.00 | 1.52 | 0.00 | 49 | 1009.8 |
| 20260507144525 | 12 | 36 | 17.7 | 43.5 | 0.00 | 1.52 | 0.00 | 50 | 1009.8 |
| 20260507144005 | 12 | 17 | 16.1 | 43.5 | 0.00 | 1.52 | 0.00 | 50 | 1009.7 |
| 20260507143512 | 12 | 43 | 16.1 | 41.8 | 0.00 | 1.52 | 0.00 | 47 | 1009.7 |
| 20260507143022 | 12 | 329 | 16.1 | 33.8 | 0.00 | 1.52 | 0.00 | 46 | 1009.8 |
| 20260507142509 | 12 | 9 | 16.1 | 32.2 | 0.00 | 1.52 | 0.00 | 50 | 1009.7 |
| 20260507142010 | 12 | 330 | 17.7 | 33.8 | 0.00 | 1.52 | 0.00 | 48 | 1009.7 |
| 20260507141528 | 12 | 36 | 25.7 | 37.0 | 0.00 | 1.52 | 0.00 | 50 | 1009.6 |
| 20260507141012 | 12 | 39 | 20.9 | 45.1 | 0.00 | 1.52 | 0.00 | 54 | 1009.6 |
| 20260507140510 | 12 | 55 | 22.5 | 45.1 | 0.00 | 1.52 | 0.00 | 52 | 1009.6 |
| 20260507140032 | 12 | 332 | 24.1 | 45.1 | 0.00 | 1.52 | 0.00 | 49 | 1009.7 |
| 20260507135507 | 12 | 347 | 19.3 | 33.8 | 0.00 | 1.52 | 0.00 | 51 | 1009.7 |
| 20260507135009 | 12 | 21 | 9.7 | 22.5 | 0.00 | 1.52 | 0.00 | 56 | 1009.4 |
| 20260507134526 | 12 | 28 | 6.4 | 20.9 | 0.00 | 1.52 | 0.00 | 56 | 1009.5 |
| 20260507134001 | 11 | 323 | 6.4 | 22.5 | 0.00 | 1.52 | 0.00 | 58 | 1009.5 |
| 20260507133502 | 11 | 265 | 9.7 | 27.4 | 0.00 | 1.52 | 0.00 | 58 | 1009.6 |
| 20260507133007 | 11 | 53 | 16.1 | 29.0 | 0.00 | 1.52 | 0.00 | 54 | 1009.5 |
| 20260507132503 | 11 | 259 | 8.0 | 29.0 | 0.00 | 1.52 | 0.00 | 58 | 1009.6 |
| 20260507132001 | 11 | 338 | 8.0 | 16.1 | 0.00 | 1.52 | 0.00 | 58 | 1009.6 |
| 20260507131529 | 11 | 300 | 6.4 | 12.9 | 0.00 | 1.52 | 0.00 | 60 | 1009.5 |
| 20260507131005 | 11 | 208 | 3.2 | 14.5 | 0.00 | 1.52 | 0.00 | 62 | 1009.4 |
| 20260507130503 | 11 | 205 | 3.2 | 17.7 | 0.00 | 1.52 | 0.00 | 61 | 1009.3 |
| 20260507130019 | 11 | 254 | 9.7 | 17.7 | 0.00 | 1.52 | 0.00 | 64 | 1009.4 |
| 20260507125506 | 11 | 309 | 11.3 | 22.5 | 0.00 | 1.52 | 0.00 | 64 | 1009.3 |
| 20260507125004 | 11 | 108 | 1.6 | 22.5 | 0.00 | 1.52 | 0.00 | 64 | 1009.5 |
| 20260507124516 | 11 | 335 | 6.4 | 22.5 | 0.00 | 1.52 | 0.00 | 67 | 1009.5 |
| 20260507124007 | 10 | 20 | 8.0 | 22.5 | 0.00 | 1.52 | 0.00 | 70 | 1009.5 |
| 20260507123511 | 10 | 311 | 8.0 | 17.7 | 0.00 | 1.52 | 0.00 | 70 | 1009.5 |
| 20260507123026 | 10 | 265 | 4.8 | 19.3 | 0.00 | 1.52 | 0.00 | 74 | 1009.4 |
| 20260507122504 | 9 | 338 | 8.0 | 19.3 | 0.00 | 1.52 | 0.00 | 75 | 1009.4 |
| 20260507122004 | 9 | 344 | 4.8 | 9.7 | 0.00 | 1.52 | 0.00 | 79 | 1009.4 |
| 20260507121503 | 9 | 129 | 3.2 | 11.3 | 0.00 | 1.52 | 0.00 | 83 | 1009.2 |
| 20260507121004 | 8 | 93 | 3.2 | 11.3 | 0.00 | 1.52 | 0.00 | 88 | 1009.3 |
| 20260507120502 | 8 | 238 | 3.2 | 9.7 | 0.00 | 1.52 | 0.00 | 90 | 1009.0 |
| 20260507120010 | 8 | 130 | 4.8 | 8.0 | 0.00 | 1.52 | 0.00 | 89 | 1008.9 |
| 20260507115505 | 8 | 142 | 1.6 | 4.8 | 0.00 | 1.52 | 0.00 | 87 | 1008.7 |
| 20260507115006 | 8 | 291 | 1.6 | 4.8 | 0.00 | 1.52 | 0.00 | 84 | 1008.7 |
| 20260507114510 | 8 | 291 | 1.6 | 6.4 | 0.00 | 1.52 | 0.00 | 84 | 1008.8 |
| 20260507114003 | 9 | 286 | 1.6 | 6.4 | 0.00 | 1.52 | 0.00 | 84 | 1008.8 |
| 20260507113504 | 9 | 254 | 1.6 | 8.0 | 0.00 | 1.52 | 0.00 | 85 | 1008.9 |
| 20260507113019 | 8 | 275 | 3.2 | 8.0 | 0.00 | 1.52 | 0.00 | 85 | 1008.8 |
| 20260507112508 | 9 | 178 | 1.6 | 6.4 | 0.00 | 1.52 | 0.00 | 86 | 1008.9 |
| 20260507112009 | 9 | 232 | 3.2 | 14.5 | 0.00 | 1.52 | 0.00 | 86 | 1009.0 |
| 20260507111520 | 9 | 255 | 6.4 | 16.1 | 0.00 | 1.52 | 0.00 | 86 | 1009.0 |
| 20260507111006 | 9 | 247 | 9.7 | 16.1 | 0.00 | 1.52 | 0.00 | 86 | 1008.8 |
| 20260507110507 | 9 | 257 | 3.2 | 12.9 | 0.00 | 1.52 | 0.00 | 89 | 1008.8 |
| 20260507110005 | 8 | 277 | 3.2 | 12.9 | 0.00 | 1.52 | 0.00 | 91 | 1008.7 |
| 20260507105503 | 8 | 282 | 4.8 | 14.5 | 0.00 | 1.52 | 0.00 | 94 | 1008.6 |
| 20260507105004 | 7 | 221 | 4.8 | 14.5 | 0.00 | 1.52 | 0.00 | 94 | 1008.5 |
| 20260507104508 | 7 | 280 | 6.4 | 11.3 | 0.00 | 1.52 | 0.00 | 94 | 1008.3 |
| 20260507104004 | 7 | 9 | 1.6 | 6.4 | 0.00 | 1.52 | 0.00 | 94 | 1008.3 |
| 20260507103504 | 7 | 51 | 0.0 | 6.4 | 0.00 | 1.52 | 0.00 | 94 | 1008.2 |
| 20260507103012 | 7 | 243 | 1.6 | 4.8 | 0.00 | 1.52 | 0.00 | 94 | 1008.2 |
| 20260507102504 | 7 | 330 | 0.0 | 6.4 | 0.00 | 1.52 | 0.00 | 94 | 1008.2 |
| 20260507102006 | 7 | 221 | 1.6 | 6.4 | 0.00 | 1.52 | 0.00 | 94 | 1008.0 |
| 20260507101518 | 7 | 178 | 1.6 | 4.8 | 0.00 | 1.52 | 0.00 | 94 | 1008.0 |
| 20260507101008 | 7 | 229 | 3.2 | 6.4 | 0.00 | 1.52 | 0.00 | 94 | 1008.0 |
| 20260507100509 | 6 | 217 | 3.2 | 6.4 | 0.00 | 1.52 | 0.00 | 94 | 1008.1 |
| 20260507100022 | 6 | 221 | 0.0 | 4.8 | 0.00 | 1.52 | 0.00 | 94 | 1008.1 |
| 20260507095506 | 6 | 26 | 1.6 | 4.8 | 0.00 | 1.52 | 0.00 | 94 | 1008.0 |
| 20260507095007 | 6 | 265 | 1.6 | 8.0 | 0.00 | 1.52 | 0.00 | 94 | 1008.2 |
| 20260507094506 | 6 | 51 | 1.6 | 8.0 | 0.00 | 1.52 | 0.00 | 94 | 1008.1 |
| 20260507094003 | 7 | 51 | 1.6 | 6.4 | 0.00 | 1.52 | 0.00 | 94 | 1008.2 |
| 20260507093503 | 7 | 193 | 0.0 | 6.4 | 0.00 | 1.52 | 0.00 | 94 | 1008.3 |
| 20260507093010 | 7 | 221 | 1.6 | 9.7 | 0.00 | 1.52 | 0.00 | 94 | 1008.4 |
| 20260507092505 | 7 | 314 | 3.2 | 9.7 | 0.00 | 1.52 | 0.00 | 94 | 1008.1 |
| 20260507092004 | 7 | 183 | 4.8 | 9.7 | 0.00 | 1.52 | 0.00 | 94 | 1008.1 |
| 20260507091510 | 7 | 282 | 3.2 | 6.4 | 0.00 | 1.52 | 0.00 | 94 | 1008.4 |
| 20260507091007 | 7 | 215 | 1.6 | 6.4 | 0.00 | 1.52 | 0.00 | 94 | 1008.3 |
| 20260507090506 | 7 | 279 | 3.2 | 6.4 | 0.00 | 1.52 | 0.00 | 94 | 1008.3 |
| 20260507090020 | 7 | 74 | 3.2 | 6.4 | 0.00 | 1.52 | 0.00 | 94 | 1008.3 |
| 20260507085507 | 7 | 51 | 1.6 | 8.0 | 0.00 | 1.52 | 0.00 | 94 | 1008.6 |
| 20260507085006 | 7 | 9 | 0.0 | 8.0 | 0.00 | 1.52 | 0.00 | 94 | 1008.5 |
| 20260507084524 | 7 | 123 | 0.0 | 6.4 | 0.00 | 1.52 | 0.00 | 94 | 1008.6 |
| 20260507084008 | 7 | 265 | 0.0 | 6.4 | 0.00 | 1.52 | 0.00 | 94 | 1008.6 |
| 20260507083511 | 7 | 93 | 3.2 | 6.4 | 0.00 | 1.52 | 0.00 | 94 | 1008.6 |
| 20260507083028 | 7 | 250 | 1.6 | 4.8 | 0.00 | 1.52 | 0.00 | 93 | 1008.7 |
| 20260507082504 | 7 | 22 | 0.0 | 3.2 | 0.00 | 1.52 | 0.00 | 93 | 1008.4 |
| 20260507082002 | 7 | 51 | 0.0 | 4.8 | 0.00 | 1.52 | 0.00 | 93 | 1008.3 |
| 20260507081513 | 7 | 325 | 0.0 | 4.8 | 0.00 | 1.52 | 0.00 | 93 | 1008.3 |
| 20260507081005 | 7 | 309 | 1.6 | 4.8 | 0.00 | 1.52 | 0.00 | 93 | 1008.2 |
| 20260507080509 | 7 | 265 | 0.0 | 3.2 | 0.00 | 1.52 | 0.00 | 93 | 1008.3 |
| 20260507080019 | 7 | 9 | 1.6 | 4.8 | 0.00 | 1.52 | 0.00 | 93 | 1008.2 |
| 20260507075505 | 8 | 41 | 1.6 | 4.8 | 0.00 | 1.52 | 0.00 | 93 | 1008.3 |
| 20260507075006 | 8 | 178 | 0.0 | 4.8 | 0.00 | 1.52 | 0.00 | 93 | 1008.2 |
| 20260507074521 | 8 | 161 | 0.0 | 4.8 | 0.00 | 1.52 | 0.00 | 93 | 1008.3 |
| 20260507074011 | 8 | 265 | 0.0 | 6.4 | 0.00 | 1.52 | 0.00 | 93 | 1008.2 |
| 20260507073506 | 8 | 44 | 3.2 | 6.4 | 0.00 | 1.52 | 0.00 | 93 | 1008.1 |
| 20260507073025 | 8 | 319 | 1.6 | 8.0 | 0.00 | 1.52 | 0.00 | 93 | 1008.1 |
| 20260507072507 | 8 | 93 | 3.2 | 9.7 | 0.00 | 1.52 | 0.00 | 93 | 1008.2 |
| 20260507072010 | 8 | 209 | 4.8 | 9.7 | 0.00 | 1.52 | 0.00 | 93 | 1008.3 |
| 20260507071528 | 8 | 178 | 1.6 | 8.0 | 0.00 | 1.52 | 0.00 | 93 | 1008.3 |
| 20260507071010 | 8 | 111 | 0.0 | 8.0 | 0.00 | 1.52 | 0.00 | 93 | 1008.1 |
| 20260507070507 | 8 | 187 | 3.2 | 6.4 | 0.00 | 1.52 | 0.00 | 93 | 1008.0 |
| 20260507070014 | 8 | 9 | 0.0 | 8.0 | 0.00 | 1.52 | 0.00 | 93 | 1007.9 |
| 20260507065509 | 8 | 342 | 3.2 | 8.0 | 0.00 | 1.52 | 0.00 | 93 | 1008.1 |
| 20260507065006 | 8 | 325 | 0.0 | 9.7 | 0.00 | 1.52 | 0.00 | 93 | 1008.3 |
| 20260507064518 | 8 | 198 | 4.8 | 9.7 | 0.00 | 1.52 | 0.00 | 93 | 1008.1 |
| 20260507064006 | 8 | 51 | 1.6 | 4.8 | 0.00 | 1.52 | 0.00 | 93 | 1007.7 |
| 20260507063508 | 8 | 51 | 0.0 | 4.8 | 0.00 | 1.52 | 0.00 | 92 | 1007.7 |
| 20260507063026 | 8 | 165 | 1.6 | 6.4 | 0.00 | 1.52 | 0.00 | 92 | 1007.8 |
| 20260507062508 | 8 | 201 | 3.2 | 6.4 | 0.00 | 1.52 | 0.00 | 92 | 1008.0 |
| 20260507062015 | 8 | 196 | 0.0 | 3.2 | 0.00 | 1.52 | 0.00 | 92 | 1007.8 |
| 20260507061524 | 8 | 178 | 0.0 | 4.8 | 0.00 | 1.52 | 0.00 | 92 | 1007.9 |
| 20260507061009 | 8 | 51 | 0.0 | 11.3 | 0.00 | 1.52 | 0.00 | 92 | 1007.9 |
| 20260507060507 | 8 | 265 | 3.2 | 12.9 | 0.00 | 1.52 | 0.00 | 92 | 1008.1 |
| 20260507060026 | 8 | 67 | 4.8 | 11.3 | 0.00 | 1.52 | 0.00 | 92 | 1008.3 |
| 20260507055510 | 8 | 51 | 0.0 | 4.8 | 0.00 | 1.52 | 0.00 | 92 | 1008.2 |
| 20260507055013 | 8 | 238 | 0.0 | 4.8 | 0.00 | 1.52 | 0.00 | 92 | 1008.3 |
| 20260507054516 | 8 | 250 | 1.6 | 3.2 | 0.00 | 1.52 | 0.00 | 92 | 1008.3 |
| 20260507054009 | 8 | 93 | 0.0 | 4.8 | 0.00 | 1.52 | 0.00 | 91 | 1008.3 |
| 20260507053509 | 8 | 291 | 0.0 | 4.8 | 0.00 | 1.52 | 0.00 | 91 | 1008.6 |
| 20260507053018 | 8 | 286 | 0.0 | 4.8 | 0.00 | 1.52 | 0.00 | 91 | 1008.6 |
| 20260507052507 | 8 | 221 | 0.0 | 9.7 | 0.00 | 1.52 | 0.00 | 91 | 1008.5 |
| 20260507052007 | 8 | 80 | 1.6 | 11.3 | 0.00 | 1.52 | 0.00 | 91 | 1008.6 |
| 20260507051525 | 8 | 119 | 6.4 | 11.3 | 0.00 | 1.52 | 0.00 | 91 | 1008.9 |
| 20260507051007 | 8 | 144 | 4.8 | 9.7 | 0.00 | 1.52 | 0.00 | 91 | 1008.9 |
| 20260507050507 | 8 | 146 | 1.6 | 8.0 | 0.00 | 1.52 | 0.00 | 91 | 1008.9 |
| 20260507050034 | 8 | 205 | 3.2 | 9.7 | 0.00 | 1.52 | 0.00 | 91 | 1008.9 |
| 20260507045510 | 8 | 178 | 6.4 | 9.7 | 0.00 | 1.52 | 0.00 | 91 | 1008.9 |
| 20260507045010 | 8 | 190 | 0.0 | 8.0 | 0.00 | 1.52 | 0.00 | 90 | 1008.8 |
| 20260507044528 | 8 | 219 | 1.6 | 8.0 | 0.00 | 1.52 | 0.00 | 89 | 1008.7 |
| 20260507044002 | 8 | 178 | 0.0 | 8.0 | 0.00 | 1.52 | 0.00 | 88 | 1008.8 |
| 20260507043502 | 8 | 295 | 3.2 | 8.0 | 0.00 | 1.52 | 0.00 | 88 | 1008.6 |
| 20260507043004 | 9 | 317 | 3.2 | 16.1 | 0.00 | 1.52 | 0.00 | 88 | 1008.7 |
| 20260507042502 | 9 | 331 | 6.4 | 16.1 | 0.00 | 1.52 | 0.00 | 89 | 1008.7 |
| 20260507042003 | 9 | 300 | 3.2 | 12.9 | 0.00 | 1.52 | 0.00 | 89 | 1008.5 |
| 20260507041515 | 9 | 298 | 4.8 | 12.9 | 0.00 | 1.52 | 0.00 | 89 | 1008.6 |
| 20260507041003 | 9 | 279 | 1.6 | 11.3 | 0.00 | 1.52 | 0.00 | 90 | 1008.7 |
| 20260507040504 | 9 | 265 | 4.8 | 11.3 | 0.00 | 1.52 | 0.00 | 90 | 1008.8 |
| 20260507040005 | 9 | 305 | 3.2 | 8.0 | 0.00 | 1.52 | 0.00 | 90 | 1008.8 |
| 20260507035503 | 9 | 265 | 1.6 | 4.8 | 0.00 | 1.52 | 1.52 | 91 | 1008.9 |
| 20260507035005 | 9 | 298 | 1.6 | 4.8 | 0.00 | 1.52 | 1.52 | 91 | 1008.9 |
| 20260507034512 | 9 | 9 | 1.6 | 4.8 | 0.00 | 1.52 | 1.52 | 91 | 1009.0 |
| 20260507034002 | 9 | 178 | 0.0 | 4.8 | 0.00 | 1.52 | 1.52 | 90 | 1009.0 |
| 20260507033503 | 9 | 325 | 1.6 | 4.8 | 0.00 | 1.52 | 1.52 | 90 | 1009.1 |
| 20260507033016 | 9 | 287 | 1.6 | 6.4 | 0.00 | 1.52 | 1.52 | 90 | 1008.9 |
| 20260507032507 | 9 | 254 | 1.6 | 6.4 | 0.00 | 1.52 | 1.52 | 90 | 1008.8 |
| 20260507032002 | 9 | 9 | 1.6 | 6.4 | 0.00 | 1.52 | 1.52 | 90 | 1008.7 |
| 20260507031504 | 9 | 325 | 1.6 | 6.4 | 0.00 | 1.52 | 1.52 | 90 | 1008.7 |
| 20260507031002 | 9 | 321 | 3.2 | 8.0 | 0.00 | 1.52 | 1.52 | 90 | 1008.9 |
| 20260507030502 | 9 | 282 | 1.6 | 12.9 | 0.03 | 1.52 | 1.52 | 90 | 1008.8 |
| 20260507030004 | 9 | 34 | 3.2 | 12.9 | 0.05 | 1.52 | 1.52 | 90 | 1008.6 |
| 20260507025503 | 9 | 279 | 1.6 | 12.9 | 0.05 | 1.52 | 1.52 | 90 | 1008.7 |
| 20260507025002 | 9 | 325 | 1.6 | 12.9 | 0.08 | 1.52 | 1.52 | 90 | 1008.7 |
| 20260507024507 | 10 | 265 | 1.6 | 12.9 | 0.08 | 1.52 | 1.52 | 90 | 1008.6 |
| 20260507024006 | 10 | 9 | 1.6 | 12.9 | 0.08 | 1.52 | 1.52 | 90 | 1008.5 |
| 20260507023502 | 10 | 314 | 3.2 | 9.7 | 0.08 | 1.52 | 1.52 | 90 | 1008.5 |
| 20260507023012 | 10 | 336 | 3.2 | 9.7 | 0.08 | 1.52 | 1.52 | 89 | 1008.4 |
| 20260507022503 | 10 | 255 | 3.2 | 12.9 | 0.08 | 1.52 | 1.52 | 89 | 1008.6 |
| 20260507022010 | 10 | 328 | 4.8 | 19.3 | 0.08 | 1.52 | 1.52 | 89 | 1008.6 |
| 20260507021515 | 10 | 334 | 3.2 | 19.3 | 0.08 | 1.52 | 1.52 | 88 | 1008.6 |
| 20260507021007 | 10 | 334 | 4.8 | 16.1 | 0.08 | 1.52 | 1.52 | 88 | 1008.7 |
| 20260507020503 | 10 | 323 | 4.8 | 16.1 | 0.05 | 1.47 | 1.47 | 88 | 1008.7 |
| 20260507020005 | 10 | 15 | 3.2 | 22.5 | 0.03 | 1.47 | 1.47 | 87 | 1008.8 |
| 20260507015502 | 10 | 38 | 11.3 | 22.5 | 0.03 | 1.47 | 1.47 | 87 | 1008.5 |
| 20260507015002 | 11 | 48 | 11.3 | 25.7 | 0.00 | 1.45 | 1.45 | 87 | 1008.3 |
| 20260507014515 | 11 | 20 | 14.5 | 27.4 | 0.00 | 1.45 | 1.45 | 87 | 1008.1 |
| 20260507014002 | 11 | 16 | 17.7 | 43.5 | 0.03 | 1.45 | 1.45 | 87 | 1008.2 |
| 20260507013501 | 11 | 29 | 17.7 | 43.5 | 0.03 | 1.45 | 1.45 | 88 | 1008.0 |
| 20260507013022 | 11 | 55 | 16.1 | 30.6 | 0.05 | 1.45 | 1.45 | 89 | 1008.0 |
| 20260507012503 | 12 | 54 | 17.7 | 25.7 | 0.05 | 1.45 | 1.45 | 90 | 1007.9 |
| 20260507012011 | 12 | 46 | 11.3 | 20.9 | 0.05 | 1.45 | 1.45 | 91 | 1007.6 |
| 20260507011529 | 12 | 47 | 12.9 | 22.5 | 0.05 | 1.45 | 1.45 | 91 | 1007.4 |
| 20260507011005 | 12 | 59 | 8.0 | 22.5 | 0.05 | 1.45 | 1.45 | 92 | 1007.2 |
| 20260507010504 | 13 | 57 | 14.5 | 20.9 | 0.08 | 1.45 | 1.45 | 92 | 1006.9 |
| 20260507010018 | 13 | 20 | 8.0 | 16.1 | 0.08 | 1.45 | 1.45 | 92 | 1006.9 |
| 20260507005506 | 13 | 39 | 11.3 | 16.1 | 0.10 | 1.45 | 1.45 | 92 | 1006.8 |
| 20260507005007 | 13 | 9 | 8.0 | 14.5 | 0.13 | 1.45 | 1.45 | 93 | 1006.8 |
| 20260507004502 | 13 | 75 | 6.4 | 9.7 | 0.15 | 1.45 | 1.45 | 92 | 1006.4 |
| 20260507004002 | 13 | 48 | 4.8 | 16.1 | 0.15 | 1.42 | 1.42 | 93 | 1006.4 |
| 20260507003503 | 13 | 116 | 3.2 | 16.1 | 0.18 | 1.42 | 1.42 | 92 | 1006.3 |
| 20260507003005 | 13 | 291 | 1.6 | 6.4 | 0.20 | 1.40 | 1.40 | 93 | 1006.3 |
| 20260507002502 | 13 | 9 | 1.6 | 8.0 | 0.23 | 1.40 | 1.40 | 93 | 1006.3 |
| 20260507002004 | 13 | 9 | 3.2 | 14.5 | 0.23 | 1.40 | 1.40 | 93 | 1006.1 |
| 20260507001511 | 13 | 51 | 1.6 | 14.5 | 0.23 | 1.40 | 1.40 | 93 | 1006.0 |
| 20260507001003 | 14 | 51 | 6.4 | 24.1 | 0.23 | 1.40 | 1.40 | 92 | 1005.9 |
| 20260507000511 | 14 | 265 | 6.4 | 24.1 | 0.23 | 1.37 | 1.37 | 92 | 1005.8 |
| 20260507000030 | 15 | 15 | 11.3 | 19.3 | 0.23 | 1.37 | 1.37 | 93 | 1005.6 |
| 20260506235504 | 15 | 195 | 6.4 | 17.7 | 0.20 | 1.32 | 1.32 | 93 | 1005.3 |
| 20260506235006 | 15 | 205 | 9.7 | 19.3 | 0.18 | 1.32 | 1.32 | 93 | 1005.3 |
| 20260506234520 | 15 | 220 | 11.3 | 19.3 | 0.15 | 1.30 | 1.30 | 94 | 1005.2 |
| 20260506234011 | 15 | 270 | 6.4 | 12.9 | 0.13 | 1.27 | 1.27 | 93 | 1005.1 |
| 20260506233509 | 15 | 224 | 4.8 | 17.7 | 0.13 | 1.24 | 1.24 | 93 | 1005.0 |
| 20260506233004 | 15 | 224 | 9.7 | 19.3 | 0.08 | 1.19 | 1.19 | 93 | 1004.9 |
| 20260506232503 | 15 | 200 | 12.9 | 19.3 | 0.08 | 1.17 | 1.17 | 93 | 1004.8 |
| 20260506232003 | 15 | 196 | 11.3 | 19.3 | 0.08 | 1.17 | 1.17 | 93 | 1004.7 |
| 20260506231507 | 15 | 221 | 9.7 | 19.3 | 0.08 | 1.17 | 1.17 | 93 | 1004.7 |
| 20260506231002 | 15 | 208 | 8.0 | 20.9 | 0.08 | 1.17 | 1.17 | 93 | 1004.5 |
| 20260506230504 | 15 | 187 | 9.7 | 20.9 | 0.05 | 1.14 | 1.14 | 93 | 1004.6 |
| 20260506230016 | 15 | 186 | 11.3 | 19.3 | 0.08 | 1.14 | 1.14 | 93 | 1004.6 |
| 20260506225509 | 15 | 205 | 11.3 | 19.3 | 0.08 | 1.14 | 1.14 | 93 | 1004.6 |
| 20260506225006 | 15 | 220 | 12.9 | 20.9 | 0.10 | 1.14 | 1.14 | 93 | 1004.6 |
| 20260506224521 | 15 | 225 | 14.5 | 25.7 | 0.13 | 1.14 | 1.14 | 93 | 1004.6 |
| 20260506224007 | 15 | 224 | 11.3 | 25.7 | 0.13 | 1.14 | 1.14 | 93 | 1004.7 |
| 20260506223507 | 15 | 203 | 14.5 | 25.7 | 0.13 | 1.12 | 1.12 | 93 | 1004.7 |
| 20260506223025 | 15 | 193 | 9.7 | 22.5 | 0.13 | 1.12 | 1.12 | 93 | 1004.7 |
| 20260506222510 | 15 | 208 | 12.9 | 22.5 | 0.10 | 1.09 | 1.09 | 93 | 1004.7 |
| 20260506222011 | 15 | 221 | 9.7 | 19.3 | 0.13 | 1.09 | 1.09 | 93 | 1004.7 |
| 20260506221526 | 15 | 188 | 11.3 | 19.3 | 0.13 | 1.09 | 1.09 | 93 | 1004.8 |
| 20260506221007 | 15 | 205 | 11.3 | 22.5 | 0.13 | 1.09 | 1.09 | 93 | 1004.9 |
| 20260506220503 | 15 | 217 | 12.9 | 22.5 | 0.13 | 1.09 | 1.09 | 93 | 1004.8 |
| 20260506220012 | 15 | 194 | 12.9 | 22.5 | 0.13 | 1.07 | 1.07 | 93 | 1004.8 |
| 20260506215503 | 15 | 198 | 12.9 | 24.1 | 0.13 | 1.07 | 1.07 | 92 | 1004.8 |
| 20260506215007 | 15 | 217 | 12.9 | 24.1 | 0.10 | 1.04 | 1.04 | 92 | 1004.8 |
| 20260506214515 | 15 | 219 | 11.3 | 25.7 | 0.10 | 1.02 | 1.02 | 92 | 1004.8 |
| 20260506214008 | 15 | 171 | 14.5 | 25.7 | 0.10 | 1.02 | 1.02 | 92 | 1004.6 |
| 20260506213509 | 15 | 224 | 14.5 | 25.7 | 0.10 | 0.99 | 0.99 | 92 | 1004.7 |
| 20260506213018 | 15 | 201 | 16.1 | 25.7 | 0.10 | 0.99 | 0.99 | 92 | 1004.6 |
| 20260506212509 | 15 | 221 | 11.3 | 24.1 | 0.10 | 0.99 | 0.99 | 92 | 1004.7 |
| 20260506212011 | 15 | 178 | 14.5 | 25.7 | 0.08 | 0.97 | 0.97 | 92 | 1004.6 |
| 20260506211525 | 15 | 178 | 9.7 | 25.7 | 0.08 | 0.97 | 0.97 | 92 | 1004.7 |
| 20260506211010 | 15 | 200 | 9.7 | 22.5 | 0.10 | 0.97 | 0.97 | 92 | 1004.8 |
| 20260506210511 | 15 | 210 | 12.9 | 29.0 | 0.10 | 0.97 | 0.97 | 92 | 1004.8 |
| 20260506210026 | 15 | 200 | 14.5 | 29.0 | 0.10 | 0.94 | 0.94 | 92 | 1004.7 |
| 20260506205511 | 15 | 191 | 12.9 | 24.1 | 0.10 | 0.94 | 0.94 | 92 | 1004.8 |
| 20260506205004 | 15 | 207 | 14.5 | 29.0 | 0.10 | 0.94 | 0.94 | 92 | 1004.9 |
| 20260506204512 | 15 | 169 | 16.1 | 29.0 | 0.08 | 0.91 | 0.91 | 92 | 1004.9 |
| 20260506204007 | 15 | 225 | 11.3 | 30.6 | 0.10 | 0.91 | 0.91 | 92 | 1004.8 |
| 20260506203507 | 15 | 202 | 16.1 | 33.8 | 0.08 | 0.89 | 0.89 | 91 | 1004.9 |
| 20260506203022 | 15 | 178 | 19.3 | 33.8 | 0.08 | 0.89 | 0.89 | 92 | 1004.9 |
| 20260506202511 | 16 | 232 | 16.1 | 33.8 | 0.10 | 0.89 | 0.89 | 92 | 1004.9 |
| 20260506202013 | 16 | 215 | 12.9 | 33.8 | 0.10 | 0.89 | 0.89 | 92 | 1004.9 |
| 20260506201522 | 16 | 209 | 12.9 | 25.7 | 0.13 | 0.89 | 0.89 | 92 | 1004.9 |
| 20260506201008 | 16 | 217 | 14.5 | 22.5 | 0.13 | 0.86 | 0.86 | 91 | 1004.9 |
| 20260506200507 | 16 | 229 | 14.5 | 24.1 | 0.18 | 0.86 | 0.86 | 91 | 1005.0 |
| 20260506200026 | 16 | 194 | 14.5 | 29.0 | 0.20 | 0.84 | 0.84 | 91 | 1005.1 |
| 20260506195511 | 16 | 182 | 14.5 | 29.0 | 0.25 | 0.84 | 0.84 | 91 | 1005.2 |
| 20260506195009 | 16 | 194 | 14.5 | 33.8 | 0.28 | 0.84 | 0.84 | 91 | 1005.3 |
| 20260506194526 | 16 | 212 | 16.1 | 32.2 | 0.30 | 0.84 | 0.84 | 92 | 1005.3 |
| 20260506194006 | 16 | 194 | 16.1 | 30.6 | 0.30 | 0.81 | 0.81 | 92 | 1005.3 |
| 20260506193506 | 16 | 191 | 12.9 | 30.6 | 0.30 | 0.81 | 0.81 | 92 | 1005.3 |
| 20260506193008 | 16 | 237 | 11.3 | 24.1 | 0.30 | 0.81 | 0.81 | 92 | 1005.4 |
| 20260506192503 | 16 | 240 | 14.5 | 25.7 | 0.30 | 0.79 | 0.79 | 92 | 1005.4 |
| 20260506192004 | 16 | 216 | 14.5 | 25.7 | 0.33 | 0.79 | 0.79 | 92 | 1005.5 |
| 20260506191507 | 16 | 207 | 9.7 | 22.5 | 0.30 | 0.76 | 0.76 | 92 | 1005.5 |
| 20260506191004 | 16 | 198 | 12.9 | 29.0 | 0.30 | 0.74 | 0.74 | 92 | 1005.5 |
| 20260506190504 | 16 | 208 | 14.5 | 29.0 | 0.28 | 0.69 | 0.69 | 92 | 1005.5 |
| 20260506190008 | 16 | 193 | 19.3 | 41.8 | 0.25 | 0.64 | 0.64 | 92 | 1005.5 |
| 20260506185503 | 16 | 196 | 19.3 | 40.2 | 0.23 | 0.58 | 0.58 | 92 | 1005.5 |
| 20260506185003 | 16 | 183 | 11.3 | 22.5 | 0.23 | 0.56 | 0.56 | 92 | 1005.6 |
| 20260506184508 | 16 | 245 | 9.7 | 25.7 | 0.23 | 0.53 | 0.53 | 92 | 1005.7 |
| 20260506184002 | 16 | 217 | 11.3 | 25.7 | 0.23 | 0.51 | 0.51 | 92 | 1005.7 |
| 20260506183503 | 16 | 205 | 11.3 | 24.1 | 0.25 | 0.51 | 0.51 | 92 | 1005.8 |
| 20260506183008 | 16 | 224 | 12.9 | 24.1 | 0.28 | 0.51 | 0.51 | 92 | 1005.8 |
| 20260506182502 | 16 | 165 | 12.9 | 22.5 | 0.28 | 0.48 | 0.48 | 92 | 1005.8 |
| 20260506182002 | 16 | 219 | 9.7 | 17.7 | 0.28 | 0.46 | 0.46 | 92 | 1006.0 |
| 20260506181510 | 16 | 220 | 11.3 | 19.3 | 0.28 | 0.46 | 0.46 | 92 | 1006.0 |
| 20260506181003 | 16 | 236 | 9.7 | 19.3 | 0.28 | 0.43 | 0.43 | 92 | 1006.0 |
| 20260506180503 | 16 | 229 | 6.4 | 17.7 | 0.28 | 0.41 | 0.41 | 92 | 1006.3 |
| 20260506180010 | 16 | 205 | 6.4 | 17.7 | 0.28 | 0.38 | 0.38 | 92 | 1006.4 |
| 20260506175504 | 16 | 202 | 4.8 | 11.3 | 0.25 | 0.36 | 0.36 | 92 | 1006.6 |
| 20260506175006 | 16 | 212 | 4.8 | 9.7 | 0.25 | 0.33 | 0.33 | 92 | 1006.8 |
| 20260506174512 | 16 | 190 | 4.8 | 9.7 | 0.25 | 0.30 | 0.30 | 91 | 1006.7 |
| 20260506174009 | 16 | 214 | 6.4 | 14.5 | 0.23 | 0.28 | 0.28 | 92 | 1006.9 |
| 20260506173504 | 16 | 200 | 9.7 | 14.5 | 0.23 | 0.25 | 0.25 | 91 | 1006.9 |
| 20260506173011 | 16 | 215 | 8.0 | 17.7 | 0.20 | 0.23 | 0.23 | 91 | 1007.1 |
| 20260506172503 | 16 | 219 | 4.8 | 17.7 | 0.18 | 0.20 | 0.20 | 91 | 1007.1 |
| 20260506172003 | 16 | 225 | 6.4 | 12.9 | 0.18 | 0.18 | 0.18 | 91 | 1007.1 |
| 20260506171521 | 16 | 225 | 4.8 | 14.5 | 0.18 | 0.18 | 0.18 | 91 | 1007.2 |
| 20260506171005 | 16 | 221 | 8.0 | 14.5 | 0.15 | 0.15 | 0.15 | 90 | 1007.3 |
| 20260506170504 | 16 | 221 | 4.8 | 19.3 | 0.13 | 0.13 | 0.13 | 90 | 1007.4 |